User: anonymous   Login
Location: Bacea
(45.9500°N, 22.6667°E)
Time: 16:33:30
(UTC+00:00)
Language:

Cosmos 1697 Rocket - Orbit

View from above orbital plane
View from above orbital plane
View from above satellite
View from above satellite

Ground track
Ground track

The orbit data is extracted from the following two-line orbital elements,

1 16182U 85097B   22023.12703118 -.00000140  00000-0 -46540-4 0  9999
2 16182  71.0026  71.3156 0006544  15.0807  49.4503 14.16264301874214
Epoch (UTC): 23 January 2022 03:02:55
Eccentricity: 0.0006544
inclination: 71.0026°
perigee height: 833 km
apogee height: 843 km
right ascension of ascending node: 71.3156°
argument of perigee: 15.0807°
revolutions per day: 14.16264301
mean anomaly at epoch: 49.4503°
orbit number at epoch: 87421

The dashed part of the orbit path shows where the satellite is in the earth's shadow,  

DLR